When you browse on this site, cookies collect data to enhance your experience and personalize the content and advertising you see.
Visit our Privacy Policy to learn more. By continuing to use the site, you agree to this use of cookies and data.
  • In France
  • List of Countries
  • For 7 days
  • Water Temperature
  • Satellite Maps
  • Weather Map
  • Weather Widgets
  • user-avatar
    Login

    Hourly Weather Yeghegnadzor

    Today, 24 May, Friday

    Time Temperature Precipitation Wind Pressure Humidity
    00:00 +14°C° 0.1 mm 1 mps 652 mmHg 80%
    01:00 +14°C° 0 mm 1 mps 652 mmHg 81%
    02:00 +13°C° 0 mm 1 mps 652 mmHg 81%
    03:00 +13°C° 0 mm 1 mps 651 mmHg 82%
    04:00 +14°C° 0 mm 1 mps 652 mmHg 79%
    05:00 +15°C° 0 mm 2 mps 652 mmHg 75%
    06:00 +16°C° 0 mm 2 mps 653 mmHg 72%
    07:00 +17°C° 0 mm 2 mps 653 mmHg 66%
    08:00 +19°C° 0 mm 3 mps 653 mmHg 59%
    09:00 +21°C° 0 mm 3 mps 653 mmHg 54%
    10:00 +22°C° 0.1 mm 3 mps 653 mmHg 50%
    11:00 +23°C° 0.1 mm 4 mps 653 mmHg 45%
    12:00 +26°C° 0.1 mm 4 mps 653 mmHg 41%
    13:00 +26°C° 0.2 mm 5 mps 653 mmHg 40%
    14:00 +27°C° 0.2 mm 6 mps 653 mmHg 38%
    15:00 +27°C° 0.2 mm 6 mps 653 mmHg 37%
    16:00 +26°C° 0.4 mm 5 mps 653 mmHg 40%
    17:00 +25°C° 0.4 mm 4 mps 653 mmHg 43%
    18:00 +24°C° 0.4 mm 3 mps 653 mmHg 46%
    19:00 +21°C° 0.2 mm 3 mps 653 mmHg 51%
    20:00 +19°C° 0.2 mm 2 mps 653 mmHg 55%
    21:00 +18°C° 0.2 mm 2 mps 653 mmHg 59%
    22:00 +17°C° 0 mm 2 mps 653 mmHg 57%
    23:00 +17°C° 0 mm 2 mps 653 mmHg 56%

    Tomorrow, 25 May, Saturday

    Time Temperature Precipitation Wind Pressure Humidity
    00:00 +17°C° 0 mm 2 mps 654 mmHg 54%
    01:00 +17°C° 0 mm 2 mps 654 mmHg 53%
    02:00 +17°C° 0 mm 2 mps 654 mmHg 52%
    03:00 +17°C° 0 mm 2 mps 654 mmHg 51%
    04:00 +18°C° 0 mm 2 mps 654 mmHg 51%
    05:00 +18°C° 0 mm 2 mps 654 mmHg 51%
    06:00 +19°C° 0 mm 2 mps 655 mmHg 51%
    07:00 +21°C° 0 mm 3 mps 655 mmHg 45%
    08:00 +24°C° 0 mm 3 mps 655 mmHg 39%
    09:00 +26°C° 0 mm 4 mps 656 mmHg 33%
    10:00 +27°C° 0 mm 4 mps 656 mmHg 31%
    11:00 +28°C° 0 mm 4 mps 655 mmHg 28%
    12:00 +29°C° 0 mm 5 mps 655 mmHg 26%
    13:00 +30°C° 0 mm 5 mps 655 mmHg 26%
    14:00 +30°C° 0 mm 6 mps 655 mmHg 25%
    15:00 +30°C° 0 mm 6 mps 655 mmHg 25%
    16:00 +29°C° 0.1 mm 5 mps 654 mmHg 28%
    17:00 +27°C° 0.1 mm 4 mps 654 mmHg 31%
    18:00 +26°C° 0.1 mm 4 mps 654 mmHg 34%
    19:00 +23°C° 0.4 mm 4 mps 653 mmHg 41%
    20:00 +20°C° 0.4 mm 3 mps 653 mmHg 48%
    21:00 +18°C° 0.4 mm 3 mps 653 mmHg 55%
    22:00 +18°C° 0 mm 3 mps 653 mmHg 56%
    23:00 +17°C° 0 mm 3 mps 653 mmHg 58%

    Day after tomorrow, 26 May, Sunday

    Time Temperature Precipitation Wind Pressure Humidity
    00:00 +17°C° 0 mm 3 mps 652 mmHg 59%
    01:00 +17°C° 0 mm 3 mps 652 mmHg 58%
    02:00 +16°C° 0 mm 3 mps 652 mmHg 58%
    03:00 +16°C° 0 mm 3 mps 652 mmHg 57%
    04:00 +17°C° 0 mm 3 mps 652 mmHg 56%
    05:00 +18°C° 0 mm 3 mps 652 mmHg 55%
    06:00 +18°C° 0 mm 3 mps 653 mmHg 54%
    07:00 +20°C° 0.1 mm 3 mps 653 mmHg 47%
    08:00 +22°C° 0.1 mm 3 mps 653 mmHg 41%
    09:00 +25°C° 0.1 mm 3 mps 654 mmHg 34%
    10:00 +27°C° 0 mm 4 mps 653 mmHg 32%
    11:00 +28°C° 0 mm 5 mps 653 mmHg 30%
    12:00 +29°C° 0 mm 5 mps 653 mmHg 28%
    13:00 +29°C° 0 mm 5 mps 653 mmHg 28%
    14:00 +29°C° 0 mm 5 mps 653 mmHg 27%
    15:00 +29°C° 0 mm 4 mps 652 mmHg 27%
    16:00 +28°C° 0 mm 4 mps 652 mmHg 28%
    17:00 +27°C° 0 mm 4 mps 652 mmHg 30%
    18:00 +26°C° 0 mm 3 mps 652 mmHg 31%
    19:00 +24°C° 0 mm 3 mps 652 mmHg 33%
    20:00 +20°C° 0 mm 2 mps 652 mmHg 34%
    21:00 +18°C° 0 mm 1 mps 652 mmHg 36%
    22:00 +17°C° 0 mm 2 mps 652 mmHg 39%
    23:00 +16°C° 0 mm 2 mps 653 mmHg 42%

    27 May, Monday

    Time Temperature Precipitation Wind Pressure Humidity
    00:00 +16°C° 0 mm 2 mps 653 mmHg 45%
    01:00 +15°C° 0 mm 2 mps 653 mmHg 50%
    02:00 +15°C° 0 mm 2 mps 653 mmHg 54%
    03:00 +14°C° 0 mm 2 mps 653 mmHg 59%
    04:00 +15°C° 0 mm 2 mps 653 mmHg 56%
    05:00 +16°C° 0 mm 2 mps 654 mmHg 54%
    06:00 +18°C° 0 mm 1 mps 654 mmHg 51%
    07:00 +19°C° 0 mm 2 mps 655 mmHg 44%
    08:00 +20°C° 0 mm 2 mps 655 mmHg 37%
    09:00 +23°C° 0 mm 2 mps 656 mmHg 30%
    10:00 +24°C° 0 mm 3 mps 656 mmHg 28%
    11:00 +25°C° 0 mm 3 mps 656 mmHg 26%
    12:00 +26°C° 0 mm 3 mps 656 mmHg 24%
    13:00 +26°C° 0 mm 4 mps 656 mmHg 24%
    14:00 +26°C° 0 mm 4 mps 655 mmHg 24%
    15:00 +27°C° 0 mm 4 mps 655 mmHg 24%
    16:00 +26°C° 0 mm 3 mps 655 mmHg 27%
    17:00 +25°C° 0 mm 3 mps 655 mmHg 31%
    18:00 +25°C° 0 mm 3 mps 655 mmHg 34%
    19:00 +21°C° 0 mm 3 mps 656 mmHg 41%
    20:00 +19°C° 0 mm 3 mps 656 mmHg 49%
    21:00 +17°C° 0 mm 3 mps 656 mmHg 56%
    22:00 +16°C° 0 mm 3 mps 656 mmHg 60%
    23:00 +16°C° 0 mm 3 mps 656 mmHg 64%

    28 May, Tuesday

    Time Temperature Precipitation Wind Pressure Humidity
    00:00 +14°C° 0 mm 3 mps 656 mmHg 67%
    01:00 +14°C° 0 mm 3 mps 656 mmHg 68%
    02:00 +13°C° 0 mm 3 mps 656 mmHg 69%
    03:00 +13°C° 0 mm 3 mps 656 mmHg 69%
    04:00 +14°C° 0 mm 3 mps 656 mmHg 67%
    05:00 +16°C° 0 mm 2 mps 657 mmHg 66%
    06:00 +16°C° 0 mm 2 mps 657 mmHg 64%
    07:00 +18°C° 0 mm 2 mps 657 mmHg 56%
    08:00 +20°C° 0 mm 2 mps 658 mmHg 49%
    09:00 +23°C° 0 mm 2 mps 658 mmHg 41%
    10:00 +24°C° 0.2 mm 2 mps 658 mmHg 38%
    11:00 +25°C° 0.2 mm 2 mps 658 mmHg 36%
    12:00 +26°C° 0.2 mm 3 mps 658 mmHg 33%
    13:00 +26°C° 0.5 mm 3 mps 658 mmHg 32%
    14:00 +26°C° 0.5 mm 3 mps 658 mmHg 32%
    15:00 +26°C° 0.5 mm 3 mps 658 mmHg 31%
    16:00 +26°C° 0.3 mm 3 mps 657 mmHg 34%
    17:00 +25°C° 0.3 mm 2 mps 657 mmHg 38%
    18:00 +24°C° 0.3 mm 2 mps 657 mmHg 41%
    19:00 +21°C° 0 mm 2 mps 657 mmHg 50%
    20:00 +19°C° 0 mm 3 mps 657 mmHg 59%
    21:00 +17°C° 0 mm 3 mps 657 mmHg 68%
    22:00 +16°C° 0 mm 3 mps 657 mmHg 71%
    23:00 +16°C° 0 mm 3 mps 657 mmHg 74%

    29 May, Wednesday

    Time Temperature Precipitation Wind Pressure Humidity
    00:00 +14°C° 0 mm 3 mps 657 mmHg 77%
    01:00 +14°C° 0 mm 3 mps 657 mmHg 75%
    02:00 +13°C° 0 mm 3 mps 656 mmHg 74%
    03:00 +13°C° 0 mm 3 mps 656 mmHg 72%
    04:00 +15°C° 0 mm 2 mps 656 mmHg 67%
    05:00 +15°C° 0 mm 2 mps 657 mmHg 61%
    06:00 +16°C° 0 mm 2 mps 657 mmHg 56%
    07:00 +18°C° 0 mm 2 mps 658 mmHg 48%
    08:00 +21°C° 0 mm 1 mps 658 mmHg 41%
    09:00 +23°C° 0 mm 1 mps 658 mmHg 33%
    10:00 +24°C° 0 mm 2 mps 658 mmHg 32%
    11:00 +25°C° 0 mm 2 mps 658 mmHg 30%
    12:00 +26°C° 0 mm 2 mps 658 mmHg 28%
    13:00 +27°C° 0 mm 2 mps 657 mmHg 28%
    14:00 +27°C° 0 mm 2 mps 657 mmHg 28%
    15:00 +28°C° 0 mm 3 mps 657 mmHg 27%
    16:00 +27°C° 0 mm 2 mps 657 mmHg 30%
    17:00 +26°C° 0 mm 2 mps 657 mmHg 33%
    18:00 +26°C° 0 mm 2 mps 656 mmHg 36%
    19:00 +23°C° 0 mm 2 mps 656 mmHg 45%
    20:00 +20°C° 0 mm 2 mps 656 mmHg 54%
    21:00 +17°C° 0 mm 2 mps 656 mmHg 63%
    22:00 +17°C° 0 mm 3 mps 656 mmHg 66%
    23:00 +16°C° 0 mm 3 mps 655 mmHg 69%
    Show more